Voltar ao catálogo

STARLINK-32032

AtivoComunicaçõesVLEO
NORAD 60077·PAYLOAD·🇺🇸 United States

Lançado Jun 19, 2024 de Vandenberg Space Force Base

Loading…

Próximas Passagens (próximas 24 horas)

TLE

AtualizadoSource: CelesTrak SupGP

Época: Sep 15, 2026, 03:08 UTC

1 60077C 24113U   26258.13104167 -.00083599  00000+0 -24700-2 0  2585
2 60077  53.1575 194.7978 0001282  92.6719 354.6315 15.34431081    18

Acompanhe STARLINK-32032 em tempo real com AllMySat

Download on the App Store